Regional Weather Roundup
Issued by NWS

Home | Current Version | Previous Version | Graphics & Text | Print | Product List | Glossary On
Versions: 1 2 3 4 5 6 7 8 9 10 11 12 13 14 15 16 17 18 19 20 21 22 23 24 25 26 27 28 29 30 31 32 33 34 35 36 37 38 39 40 41 42 43 44 45 46 47 48 49 50
000
ASUS43 KFSD 200210
RWRSD

WEATHER ROUNDUP FOR SOUTH DAKOTA
NATIONAL WEATHER SERVICE SIOUX FALLS SD
900 PM CDT SUN OCT 19 2014

NOTE: "FAIR" INDICATES FEW OR NO CLOUDS BELOW 12,000 FEET WITH NO
SIGNIFICANT WEATHER AND/OR OBSTRUCTIONS TO VISIBILITY.


SDZ001>005-009-010-012>017-200300-
NORTHWEST AND NORTH CENTRAL SOUTH DAKOTA

CITY           SKY/WX    TMP DP  RH WIND       PRES   REMARKS
BUFFALO          N/A     57  33  40 SE3       29.99S
FAITH            N/A     56  37  49 CALM      30.04R
MOBRIDGE       CLEAR     50  39  66 N7        29.98R
$$

SDZ012>016-024>037-041>051-057-063-072>074-200300-
SOUTHWEST AND SOUTH CENTRAL SOUTH DAKOTA

CITY           SKY/WX    TMP DP  RH WIND       PRES   REMARKS
RAPID CTY ARPT CLEAR     50  40  68 N6        30.07R
PIERRE         CLEAR     56  37  49 N10       29.99R
CUSTER         CLEAR     50  37  61 CALM      30.17R
ELLSWORTH AFB  CLEAR     55  41  59 W1        30.07R
PHILIP         CLEAR     48  38  68 W5        30.03R
PINE RIDGE     CLEAR     48  39  71 E3        30.08R
SPEARFISH      FAIR      48  39  71 S8        30.10S HAZE
WINNER         FAIR      61  37  41 NW7       30.01R
$$

SDZ004>011-016>023-039-040-200300-
NORTHEAST SOUTH DAKOTA

CITY           SKY/WX    TMP DP  RH WIND       PRES   REMARKS
ABERDEEN       CLEAR     52  39  61 N9        29.97R
WATERTOWN      CLEAR     51  37  58 N7        29.94R
SISSETON         N/A     50  37  61 NW8       29.92R
$$

SDZ017-020-022-023-036>040-048>070-200300-
SOUTHEAST SOUTH DAKOTA

CITY           SKY/WX    TMP DP  RH WIND       PRES   REMARKS
SIOUX FALLS    CLEAR     55  39  54 NW6       29.93R
HURON          CLEAR     51  38  60 NW6       29.95R
CHAMBERLAIN    CLEAR     60  38  45 N5        29.98R
MITCHELL       CLEAR     58  39  49 NW10      29.95R
YANKTON        CLEAR     55  43  62 NW10      29.93R
$$

ABBREVIATIONS USED IN REMARKS
   TC - TEMPERATURE IN CELSIUS
  WCI - WIND CHILL INDEX
   HX - HEAT INDEX
  VSB - VISIBILITY



USA.gov is the U.S. government's official web portal to all federal, state and local government web resources and services.